Location: Pl�tzky
(52.0521°N, 11.8020°E)
Time: 16:59:07
(UTC+00:00)

USA 229 - Visible Passes

Search period start: 27 January 2021 00:00
Search period end: 06 February 2021 00:00
Orbit: 965 x 1247 km, 63.4° (Epoch: 21 January)

Date Brightness Start Highest point End Pass type
(mag) Time Alt. Az. Time Alt. Az. Time Alt. Az.
27 Jan 3.9 16:19:28 10° NW 16:26:36 66° NE 16:34:10 10° ESE visible
27 Jan 4.9 18:10:38 10° NW 18:17:28 45° WSW 18:24:39 10° S visible
27 Jan 6.6 20:06:23 10° W 20:06:48 10° W 20:07:14 10° WSW visible
28 Jan 4.4 17:25:41 10° NW 17:32:49 63° SW 17:40:22 10° SSE visible
28 Jan 6.3 19:18:14 10° WNW 19:22:36 17° WSW 19:27:06 10° SW visible
29 Jan 4.1 16:40:49 10° NW 16:48:03 84° SW 16:55:44 10° SE visible
29 Jan 5.9 18:32:31 10° WNW 18:38:16 25° WSW 18:44:14 10° SSW visible
30 Jan 5.4 17:47:16 10° NW 17:53:49 37° WSW 18:00:39 10° S visible
31 Jan 4.9 17:02:14 10° NW 17:09:13 51° WSW 17:16:35 10° SSE visible
31 Jan 6.7 18:55:50 10° W 18:58:45 13° WSW 19:01:42 10° SW visible
01 Feb 6.4 18:09:28 10° WNW 18:14:30 20° WSW 18:19:40 10° SSW visible
02 Feb 6.0 17:23:59 10° WNW 17:30:07 29° WSW 17:36:28 10° S visible
03 Feb 5.4 16:38:50 10° NW 16:45:36 42° WSW 16:52:40 10° S visible
04 Feb 6.8 17:46:41 10° WNW 17:50:40 15° WSW 17:54:44 10° SW visible
05 Feb 6.8 05:55:10 10° SE 05:58:40 15° ESE 06:02:15 10° ENE visible
05 Feb 6.6 17:00:49 10° WNW 17:06:21 24° WSW 17:12:05 10° SSW visible
